Simultaneous Nadir Overpasses (SNOs) Predictions

Prediction of SNOs between GOES-16 and METOP-C Satellite Orbit:

Table of predicted SNOs for the next 14.0 days since TLE Epoch: 6/26/2025
Index Date Time (GOES-16) GOES-16 Lat,Lon METOP-C Lat,Lon Distance(km) Time Diff (sec)
1 06/27/2025 16:45:04 0.02,-104.73 0.88,-108.71 453.08 80
2 06/28/2025 16:27:04 0.02,-104.73 -0.22,-103.71 116.20 80
3 06/30/2025 04:43:24 -0.02,-104.72 -0.83,-108.30 409.00 80
4 07/01/2025 04:25:25 -0.02,-104.72 0.27,-103.30 160.60 80
5 07/02/2025 16:41:36 0.02,-104.74 0.74,-107.86 356.49 80
6 07/03/2025 16:23:37 0.02,-104.74 -0.37,-102.86 213.24 80
7 07/05/2025 04:39:58 -0.02,-104.73 -0.62,-107.47 311.63 80
8 07/06/2025 04:21:59 -0.02,-104.73 0.49,-102.47 257.89 80
9 07/07/2025 16:38:10 0.01,-104.75 0.51,-107.03 259.55 80
10 07/08/2025 16:17:30 0.01,-104.75 -0.60,-102.03 309.67 80
11 07/10/2025 04:39:11 -0.00,-104.73 -0.44,-106.62 215.75 80
